Terminal Aerodrome Forecast
Issued by NWS

Home | Current Version | Previous Version | Text Only | Print | Product List | Glossary Off
Versions: 1 2 3 4 5 6 7 8 9 10 11 12 13 14 15 16 17 18

000
FTUS43 KTOP 111600 AAA
TAFFOE
TAF AMD
KFOE 111602Z 1116/1212 20010KT P6SM SCT120
     FM111900 20013G21KT P6SM SCT120
     FM120300 19009KT P6SM FEW250=

USA.gov is the U.S. government's official web portal to all federal, state and local government web resources and services.